Location: Perugia
(43.1330°N, 12.3670°E)
Time: 05:39:52
(UTC+01:00)

ISS - Pass Details

Date: 31 January 2021
Orbit: 417 x 422 km, 51.6° (Epoch: 08 March)

Event Time Altitude Azimuth Distance (km) Brightness Sun altitude
Rises 19:41:07 0° 304° (NW) 2,375 0.9 -25.6°
Reaches altitude 10° 19:43:14 10° 307° (NW) 1,509 -0.3 -26.0°
Enters shadow 19:44:30 21° 312° (NW) 1,010 -1.4 -26.2°
